Location: La Sauvetat
(43.8535°N, 0.5264°E)
Time: 10:23:04
(UTC+00:00)

Daily predictions for brighter satellites

Satellite Brightness Start Highest point End
(mag) Time Altitude Azimuth Time Altitude Azimuth Time Altitude Azimuth
Cosmos 1110 Rocket 4.3 18:42:47 10° N 18:47:53 47° ENE 18:52:53 10° SE
Cosmos 332 Rocket 3.9 18:44:15 10° NNW 18:49:10 67° ENE 18:54:02 10° SSE
SL-16 R/B 2.9 18:45:11 10° SSE 18:50:02 30° ESE 18:54:56 10° NE
STARLINK-1072 4.4 18:46:21 10° NW 18:50:07 38° NNE 18:53:52 10° E
Cosmos 2333 Rocket 3.9 18:45:03 10° SW 18:50:20 38° NW 18:55:38 10° NNE
STARLINK-1230 3.7 18:46:31 10° SW 18:50:26 53° SE 18:54:23 10° ENE
Cosmos 1892 Rocket 3.8 18:47:32 10° N 18:51:54 51° ENE 18:56:16 10° SSE
STARLINK-1234 3.2 18:50:50 10° WSW 18:53:48 62° NNW 18:56:46 10° NE
USA 186 3.0 18:50:56 10° SE 18:53:50 26° ENE 18:56:42 10° NNE
CSL-04 Rocket 3.9 18:48:55 10° S 18:54:14 75° WSW 18:59:32 10° NNW
STARLINK-1096 4.3 18:50:48 10° NW 18:54:36 40° NNE 18:58:24 10° E
ARGOS Delta rocket 4.3 18:49:57 10° SE 18:54:48 48° ENE 18:59:55 10° N
STARLINK-1243 3.6 18:51:10 10° SW 18:55:07 58° SE 18:59:06 10° ENE
Meteor 2-21 Rocket 4.4 18:49:20 10° N 18:55:26 84° E 19:01:30 10° S
Meteor 2-16 Rocket 4.5 18:49:55 10° N 18:56:06 71° E 19:02:13 10° SSE
Cosmos 1626 3.3 18:53:17 10° NNE 18:56:20 24° ENE 18:59:22 10° SE
NOSS 2-1 (E) 4.1 18:53:13 10° SW 18:56:30 47° NW 19:00:05 10° NNE
STARLINK-1079 4.2 18:55:16 10° NW 18:59:06 42° NNE 19:02:49 11° E
STARLINK-1236 3.6 18:55:47 10° SW 18:59:46 64° SE 19:03:47 10° ENE
Okean 1-7 Rocket 3.7 18:55:31 10° N 18:59:50 52° ENE 19:04:06 10° SSE
Cosmos 1242 Rocket 4.2 18:56:54 10° NNW 19:00:08 37° W 19:03:21 10° SSW
STARLINK-1116 4.1 18:59:43 10° NW 19:03:35 45° NNE 19:07:08 12° E
SJ-11-01 4.3 19:00:01 10° SSE 19:04:38 66° ENE 19:09:20 10° N
H-2A R/B 2.3 19:00:32 10° SE 19:05:40 51° ENE 19:10:44 10° N
STARLINK-1269 3.5 19:05:08 10° SW 19:09:10 76° SE 19:13:12 10° ENE
STARLINK-1118 2.4 19:07:34 10° WNW 19:09:45 56° SW 19:11:31 14° SE
ERBS 4.4 19:08:21 10° W 19:11:15 26° NNW 19:14:10 10° NNE
Cosmos 1544 Rocket 3.8 19:07:22 10° SSE 19:11:33 45° E 19:15:47 10° NNE
STARLINK-1094 4.0 19:08:41 10° NW 19:12:36 50° NNE 19:15:46 15° ESE
HJ-1C 3.7 19:10:24 10° S 19:13:44 68° W 19:17:05 10° NNW
STARLINK-1200 3.5 19:09:49 10° SW 19:13:52 82° SE 19:17:55 10° ENE
Cosmos 1745 Rocket 4.0 19:07:41 10° N 19:14:02 89° ENE 19:20:17 10° S
Cosmos 2297 4.0 19:10:01 10° NNW 19:15:33 51° ENE 19:20:56 11° SE
USA 234 3.4 19:10:25 10° NE 19:16:50 55° SE 19:23:13 10° SSW
STARLINK-1117 3.9 19:13:11 10° NW 19:17:08 54° NNE 19:20:06 16° ESE
STARLINK-1192 3.5 19:14:27 10° SW 19:18:30 88° SSE 19:22:34 10° NE
Meteor 2-5 Rocket 3.9 19:13:43 10° NNW 19:19:23 78° W 19:24:56 10° S
Cosmos 2237 Rocket 2.9 19:14:34 10° SW 19:20:07 60° WNW 19:25:42 10° NNE
Cosmos 1805 3.9 19:16:18 10° SSW 19:20:10 61° W 19:24:03 10° N
STARLINK-1078 3.8 19:17:40 10° NW 19:21:38 57° NNE 19:24:26 18° ESE
ADEOS Rocket 4.1 19:15:12 10° N 19:21:49 53° WNW 19:27:44 10° SW
STARLINK-1244 3.6 19:19:15 10° SW 19:23:18 86° NNW 19:27:22 10° NE
STARLINK-1201 3.9 19:20:35 10° WSW 19:23:45 49° NNW 19:26:57 10° NE
Cosmos 1302 Rocket 4.3 19:20:20 10° N 19:25:26 48° ENE 19:29:43 14° SE
STARLINK-1108 3.7 19:22:11 10° NW 19:26:11 61° NNE 19:28:48 20° ESE
Cosmos 1269 Rocket 3.9 19:22:11 10° SSW 19:27:27 75° ESE 19:32:45 10° NNE
Cosmos 2278 Rocket 3.5 19:22:26 10° NW 19:27:42 41° WSW 19:32:57 10° S
STARLINK-1138 3.6 19:23:56 10° WSW 19:28:00 80° NNW 19:32:03 10° NE
CZ-2C R/B 3.5 19:24:36 10° NE 19:28:51 25° E 19:32:38 12° SE
STARLINK-1209 4.5 19:26:32 10° W 19:29:12 30° NNW 19:31:49 10° NE
STARLINK-1228 4.5 19:27:33 10° W 19:30:09 30° NNW 19:32:46 10° NE
STARLINK-1066 2.8 19:27:27 10° NW 19:30:37 87° SW 19:32:18 25° SE
STARLINK-1071 3.6 19:26:42 10° NW 19:30:43 66° NNE 19:33:08 22° ESE
STARLINK-1081 2.8 19:27:55 10° NW 19:31:03 86° SW 19:32:41 25° SE
STARLINK-1070 2.8 19:28:22 10° NW 19:31:30 86° SW 19:33:06 26° SE
STARLINK-1124 3.7 19:27:35 10° NW 19:31:44 68° NNE 19:34:14 23° ESE
STARLINK-1069 2.8 19:28:46 10° WNW 19:31:56 85° SW 19:33:34 26° SE
STARLINK-1085 2.8 19:29:13 10° WNW 19:32:22 84° SW 19:34:00 26° SE
STARLINK-1143 3.7 19:28:43 10° WSW 19:32:46 75° NNW 19:36:50 10° NE
STARLINK-1086 2.8 19:29:43 10° WNW 19:32:51 83° SW 19:34:25 27° SE
STARLINK-1095 2.8 19:30:10 10° WNW 19:33:17 83° SW 19:34:50 27° SE
CZ-4 R/B 4.4 19:31:29 10° SW 19:33:39 14° W 19:35:50 10° WNW
STARLINK-1077 2.8 19:30:36 10° WNW 19:33:44 82° SW 19:35:16 27° SE
ARGOS 3.1 19:28:22 10° SSE 19:33:45 76° ENE 19:39:10 10° N
STARLINK-1075 2.8 19:31:04 10° WNW 19:34:12 81° SW 19:35:42 27° SE
SL-8 R/B 4.4 19:29:35 10° WNW 19:34:13 48° N 19:38:02 15° ENE
STARLINK-1093 2.9 19:31:29 10° WNW 19:34:38 80° SW 19:36:10 27° SE
Meteor 1-24 Rocket 3.8 19:29:12 10° NNW 19:34:44 77° W 19:40:04 10° S
STARLINK-1074 2.9 19:31:55 10° WNW 19:35:05 80° SW 19:36:36 28° SE
STARLINK-1110 3.6 19:31:12 10° NW 19:35:14 70° NNE 19:37:29 25° ESE
STARLINK-1087 2.8 19:32:25 10° WNW 19:35:32 79° SW 19:37:00 28° SE
STARLINK-1088 2.9 19:32:52 10° WNW 19:36:00 78° SW 19:37:26 29° SE
STARLINK-1115 2.9 19:33:17 10° WNW 19:36:27 77° SW 19:37:55 29° SE
STARLINK-1076 2.9 19:33:43 10° WNW 19:36:53 76° SW 19:38:20 29° SE
STARLINK-1092 2.9 19:34:12 10° WNW 19:37:21 76° SW 19:38:47 29° SE
STARLINK-1080 2.9 19:34:40 10° WNW 19:37:48 75° SW 19:39:10 30° SE
MOS 1 4.3 19:32:25 10° SSE 19:38:03 88° ENE 19:43:45 10° NNW
STARLINK-1090 2.9 19:35:07 10° WNW 19:38:14 74° SW 19:39:36 30° SE
STARLINK-1089 2.9 19:35:35 10° WNW 19:38:41 73° SW 19:40:02 30° SE
SL-24 R/B 4.4 19:34:24 10° NNE 19:38:46 42° E 19:42:36 10° SSE
STARLINK-1107 2.9 19:36:01 10° WNW 19:39:09 72° SW 19:40:28 31° SE
Cosmos 1470 2.7 19:36:37 10° S 19:40:24 56° E 19:44:14 10° NNE
STARLINK-1241 3.9 19:39:14 10° WSW 19:43:13 63° NNW 19:47:06 11° NE
STARLINK-1233 4.5 19:40:42 10° W 19:43:36 33° NNW 19:46:21 11° NE
STARLINK-1212 4.5 19:41:11 10° W 19:44:03 33° NNW 19:46:46 11° NE
STARLINK-1122 3.5 19:40:22 10° NW 19:44:24 81° NE 19:46:17 30° ESE
Cosmos 2315 Rocket 3.9 19:38:16 10° S 19:44:32 76° E 19:50:53 10° N
SL-08 RB Rocket 3.6 19:40:53 13° SSE 19:44:56 70° ENE 19:49:29 10° N
SJ-6B 2.8 19:42:00 10° SSE 19:46:02 89° E 19:50:11 10° NNW
MetOp-A 4.2 19:42:29 17° SE 19:46:34 56° ENE 19:51:48 10° N
ISS -2.0 19:43:53 10° NW 19:46:42 24° N 19:48:11 18° NE
Resurs 1-3 3.9 19:44:44 25° SE 19:46:53 45° ENE 19:51:05 10° N
STARLINK-1239 4.1 19:43:51 10° WSW 19:47:49 59° NNW 19:51:30 12° NE
Cosmos 1758 3.3 19:44:15 10° S 19:48:17 65° E 19:52:21 10° NNE
STARLINK-1126 3.5 19:44:59 10° NW 19:49:02 87° NE 19:50:44 34° ESE
BREEZE M DEB (TANK) 4.5 19:39:34 10° SW 19:51:40 40° SSE 19:53:49 27° ESE
STARLINK-1240 4.2 19:48:29 10° WSW 19:52:26 55° NNW 19:55:55 13° NE
CZ-2C R/B 3.2 19:47:23 10° S 19:52:29 69° WSW 19:57:21 10° NNW
STARLINK-1082 3.5 19:49:34 10° NW 19:53:36 87° SSW 19:55:08 37° SE
Resurs 01 Rocket 2.2 19:53:05 31° ESE 19:54:17 38° ENE 19:58:22 10° N
FREGAT/IRIS 4.0 19:52:30 10° SSW 19:55:01 34° W 19:57:33 10° NNW
Abrixas rocket 3.1 19:52:19 10° SW 19:54:14 29° S 19:54:14 29° S
Cosmos 2369 Rocket 3.0 19:50:38 10° N 19:55:51 35° NE 19:57:50 27° E
STARLINK-1216 4.3 19:53:09 10° WSW 19:57:04 52° NNW 20:00:23 14° NE
STARLINK-1100 3.5 19:54:07 10° WNW 19:58:10 81° SW 19:59:31 40° SE
Meteor 2-15 Rocket 4.3 19:54:32 10° S 20:00:34 72° E 20:06:38 10° NNE
STARLINK-1237 4.4 19:57:50 10° WSW 20:01:45 49° NNW 20:04:52 15° NE
IRIDIUM 114 4.3 19:57:28 10° N 20:02:39 61° E 20:05:35 25° SSE
STARLINK-1083 3.5 19:58:44 10° WNW 20:02:46 76° SW 20:03:57 44° SE
SPOT 3 Rocket 3.5 20:00:43 17° SSE 20:04:44 88° ENE 20:10:00 10° NNW
Cosmos 1726 3.6 20:06:29 23° NE 20:06:29 23° NE 20:08:19 10° NNE
SL-14 R/B 4.4 20:02:47 10° NNW 20:06:40 44° W 20:10:29 10° SSW
STARLINK-1125 3.6 20:03:21 10° WNW 20:07:24 70° SW 20:08:23 47° SSE
STARLINK-1123 4.5 20:04:49 10° NW 20:08:44 40° NNE 20:09:44 34° ENE
Meteor 1-21 Rocket 4.1 20:03:25 10° N 20:08:58 64° ENE 20:11:31 32° SSE
Cosmos 1709 Rocket 4.5 20:05:30 10° NNW 20:11:36 61° W 20:17:36 10° S
STARLINK-1109 3.7 20:07:40 10° WNW 20:11:41 65° SW 20:12:32 49° SSE
IRIDIUM 103 4.2 20:06:36 10° N 20:11:50 74° E 20:14:45 27° SSE
STARLINK-1097 4.3 20:09:45 10° NW 20:13:43 42° NNE 20:14:29 37° NE
MOS 1 Rocket 3.5 20:08:49 10° NNE 20:14:01 67° E 20:19:07 11° S
STARLINK-1091 3.8 20:12:21 10° WNW 20:16:22 59° SW 20:17:02 51° S
Cosmos 1943 4.3 20:19:28 27° ENE 20:19:28 27° ENE 20:22:31 10° NE
Cosmos 292 Rocket 3.8 20:13:40 10° NNW 20:18:24 56° ENE 20:19:07 51° ESE
STARLINK-1099 4.2 20:14:44 10° NW 20:18:44 44° NNE 20:19:17 41° NE
Cosmos 1943 Rocket 2.1 20:15:45 10° NNW 20:21:17 69° ENE 20:22:51 46° SE
STARLINK-1104 4.1 20:19:43 10° NW 20:23:44 47° NNE 20:24:04 46° NE
Cosmos 2074 Rocket 3.9 20:17:54 10° N 20:24:11 69° E 20:26:45 37° SSE
STARLINK-1144 4.0 20:24:40 10° NW 20:28:43 50° NNE 20:28:50 50° NE
STARLINK-1072 4.1 20:25:27 10° WNW 20:29:16 45° SW 20:29:27 45° SSW
IRIDIUM 106 4.4 20:24:53 10° N 20:30:06 77° W 20:32:57 28° S
Cosmos 1953 2.3 20:29:29 57° SSW 20:30:12 77° W 20:34:12 10° N
Meteor 2-10 3.9 20:28:33 35° S 20:30:49 74° E 20:36:20 10° NNE
NOSS 3-3 (A) 3.8 20:25:52 10° SSW 20:31:31 57° ESE 20:37:49 10° NE
NOSS 3-3 (C) 3.8 20:26:00 10° SSW 20:31:37 57° ESE 20:37:55 10° NE
SPOT 1/Viking Rocket 4.4 20:32:06 33° ENE 20:32:06 33° ENE 20:36:25 10° N
Spot 2 Rocket 3.7 20:33:06 51° ENE 20:33:16 51° ENE 20:38:14 10° N
STARLINK-1103 4.0 20:29:38 10° NW 20:33:36 53° NNE 20:33:36 53° NNE
STARLINK-1096 4.3 20:29:56 10° WNW 20:33:44 42° SW 20:33:45 42° SW
SL-16 R/B 3.4 20:28:38 10° SW 20:33:58 42° WNW 20:39:21 10° NNE
Cosmos 2084 Rocket 3.6 20:30:55 10° NNW 20:35:19 66° NE 20:35:19 66° NE
Cosmos 1610 Rocket 4.5 20:32:02 10° N 20:38:12 58° ENE 20:39:04 53° ESE
STARLINK-1101 4.0 20:34:37 10° NW 20:38:25 55° N 20:38:25 55° N
Aureole 3 4.4 20:38:26 21° SW 20:40:53 50° WNW 20:45:40 10° N
STARLINK-1102 4.1 20:39:35 10° NW 20:43:11 55° N 20:43:11 55° N
Aureole 2 Rocket 3.8 20:40:32 10° NNW 20:42:44 36° NNW 20:42:44 36° NNW
H-2A R/B 4.3 20:41:20 10° SW 20:45:21 22° W 20:49:20 10° NW
Terra 3.7 20:49:36 18° NE 20:49:36 18° NE 20:51:34 10° NNE
STARLINK-1111 4.2 20:44:32 10° NW 20:47:58 54° NNW 20:47:58 54° NNW
STARLINK-1073 4.4 20:49:32 10° NW 20:52:45 50° NNW 20:52:45 50° NNW
Cosmos 1603 3.5 20:53:25 42° SSW 20:55:27 88° ESE 21:01:07 10° NNE
Meteor 1-16 Rocket 4.1 20:54:16 54° SSW 20:55:30 80° W 21:00:58 10° N
ATLAS 2AS CENTAUR R/B 3.4 20:48:58 10° NNW 20:56:12 42° NE 20:57:41 38° ENE
Cosmos 1825 Rocket 4.0 20:53:58 10° NNW 20:57:49 61° NW 20:57:49 61° NW
USA 234 3.9 20:53:30 10° NE 20:59:49 53° NNW 21:06:07 10° WSW
MetOp-B 4.1 21:01:14 76° SSW 21:01:32 80° WSW 21:06:56 10° NNW
Cosmos 2327 Rocket 4.4 20:56:03 10° N 21:02:20 88° W 21:03:23 65° S
Aureole 1 Rocket 4.5 21:07:14 55° E 21:07:14 55° E 21:13:16 10° NNE
Cosmos 1758 Rocket 4.5 21:03:26 10° NNW 21:07:20 44° W 21:07:20 44° W
CZ-2C R/B 3.7 21:04:27 10° N 21:09:19 42° WNW 21:14:08 10° SW
Cosmos 1992 Rocket 4.4 21:05:30 10° NNW 21:10:35 54° WSW 21:10:43 54° WSW
COSMOS 2455 4.2 21:06:12 10° NNW 21:11:09 25° NE 21:11:09 25° NE
Meteor 1-11 4.2 21:06:41 10° N 21:12:06 77° NNE 21:12:06 77° NNE
Cosmos 1295 Rocket 4.4 21:10:41 10° N 21:16:48 82° NE 21:16:48 82° NE
Meteor 2-17 Rocket 4.4 21:14:37 10° NNW 21:20:45 75° W 21:21:00 74° WSW
Cosmos 1656 Rocket 4.0 21:17:53 10° NNW 21:22:37 61° N 21:22:37 61° N
ISS -0.6 21:20:33 10° NW 21:21:09 14° NW 21:21:09 14° NW
ERS-1 Rocket 3.9 21:28:47 43° N 21:28:47 43° N 21:32:09 10° N
Resurs 01 Rocket 3.7 21:30:38 21° W 21:30:53 21° W 21:34:16 10° NW
Cosmos 2154 Rocket 4.4 21:29:36 10° NNW 21:35:49 56° W 21:36:22 54° WSW
Cosmos 2369 Rocket 3.3 21:34:40 10° NW 21:39:39 38° W 21:39:39 38° W
Cosmos 1943 4.4 22:01:06 38° WNW 22:01:25 38° WNW 22:06:42 10° NNE
Cosmos 1943 Rocket 4.3 22:00:53 10° WNW 22:04:24 17° W 22:04:25 17° W
NOSS 3-4 (A) 4.1 22:07:42 10° NW 22:13:24 63° NW 22:13:24 63° NW
NOSS 3-4 (C) 4.1 22:07:48 10° NW 22:13:29 63° NW 22:13:29 63° NW
Terra 4.2 22:28:30 20° NNW 22:28:30 20° NNW 22:30:02 10° NNW
ATLAS 2AS CENTAUR R/B 3.8 22:40:10 10° NW 22:45:08 40° WNW 22:45:08 40° WNW
